Date String (YYYY-MM-DD hh:mm:ss) UTC,Instrument flags,Ambient pressure (hPa),Sample flow (lpm),Bypass flow (lpm),Sample temperature (°C),Ambient temperature (°C),ASC tube jacket temperature (°C),LED temperature (°C),Box temperature (°C),Sample RH (%),Span deviation,Mass concentration (μg/m³),Mass concentration (μg/m³),Mass concentration (μg/m³)
DateTimeUTC,F1_M11,P_M11,Q1_M11,Q2_M11,T1_M11,T2_M11,T3_M11,T4_M11,T5_M11,U1_M11,ZSPAN_M11,X0_M11,X2_M11,X1_M11
2023-02-07 09:00:00,,0827.7,5.01,0.00,21.7,19.9,00.0,30.7,23.3,08.1,0000.0,0001.82,0001.25,0001.06
2023-02-07 09:01:00,,0827.7,5.00,0.00,21.7,19.8,00.0,30.7,23.2,08.1,0000.0,0001.85,0001.21,0001.04
2023-02-07 09:02:00,,0827.7,4.99,0.00,21.6,19.6,00.0,30.7,23.2,08.1,0000.0,0001.83,0001.18,0001.02
2023-02-07 09:03:00,,0827.7,4.99,0.00,21.6,19.5,00.0,30.6,23.1,08.2,0000.0,0001.82,0001.17,0001.01
2023-02-07 09:04:00,,0827.7,5.01,0.00,21.5,19.5,00.0,30.6,23.0,08.2,0000.0,0001.77,0001.16,0001.01
2023-02-07 09:05:00,,0827.7,5.01,0.00,21.5,19.4,00.0,30.6,23.0,08.1,0000.0,0001.66,0001.11,0000.99
2023-02-07 09:06:00,,0827.7,5.02,0.00,21.5,20.3,00.0,30.5,23.2,08.0,0000.0,0001.64,0001.08,0000.96
2023-02-07 09:07:00,,0827.7,4.99,0.00,21.6,21.6,00.0,30.5,23.5,08.1,0000.0,0001.66,0001.08,0000.94
2023-02-07 09:08:00,,0827.6,5.00,0.00,21.8,22.5,00.0,30.5,23.8,07.9,0000.0,0001.61,0001.03,0000.92
2023-02-07 09:09:00,,0827.7,4.99,0.00,21.8,22.0,00.0,30.6,23.7,07.7,0000.0,0001.67,0001.01,0000.88
2023-02-07 09:10:00,,0827.7,4.99,0.00,21.8,21.4,00.0,30.6,23.6,07.9,0000.0,0001.71,0001.01,0000.85
2023-02-07 09:11:00,,0827.5,4.99,0.00,21.8,20.9,00.0,30.6,23.5,08.1,0000.0,0001.69,0000.99,0000.84
2023-02-07 09:12:00,,0827.5,5.01,0.00,21.7,20.5,00.0,30.6,23.4,07.8,0000.0,0001.53,0000.96,0000.81
2023-02-07 09:13:00,,0827.5,5.02,0.00,21.7,20.1,00.0,30.6,23.3,07.7,0000.0,0001.49,0000.95,0000.79
2023-02-07 09:14:00,,0827.5,4.97,0.00,21.6,19.8,00.0,30.6,23.2,07.7,0000.0,0001.46,0000.92,0000.76
2023-02-07 09:15:00,,0827.5,4.99,0.00,21.6,19.7,00.0,30.6,23.1,07.9,0000.0,0001.42,0000.89,0000.72
2023-02-07 09:16:00,,0827.5,5.00,0.00,21.6,19.6,00.0,30.6,23.1,07.9,0000.0,0001.40,0000.87,0000.69
2023-02-07 09:17:00,,0827.6,5.00,0.00,21.5,19.6,00.0,30.6,23.1,07.8,0000.0,0001.42,0000.88,0000.68
2023-02-07 09:18:00,,0827.4,4.99,0.00,21.5,19.5,00.0,30.5,23.0,07.7,0000.0,0001.41,0000.86,0000.67
2023-02-07 09:19:00,,0827.5,4.98,0.00,21.4,19.5,00.0,30.5,23.0,07.8,0000.0,0001.49,0000.85,0000.66
2023-02-07 09:20:00,,0827.4,5.00,0.00,21.4,19.8,00.0,30.5,23.0,07.8,0000.0,0001.38,0000.82,0000.65
2023-02-07 09:21:00,,0827.4,5.00,0.00,21.5,21.0,00.0,30.4,23.3,07.7,0000.0,0001.28,0000.78,0000.64
2023-02-07 09:22:00,,0827.4,5.00,0.00,21.7,22.2,00.0,30.4,23.6,07.7,0000.0,0001.23,0000.76,0000.63
2023-02-07 09:23:00,,0827.4,5.00,0.00,21.8,22.4,00.0,30.5,23.7,07.7,0000.0,0001.28,0000.77,0000.63
2023-02-07 09:24:00,,0827.4,4.99,0.00,21.8,21.8,00.0,30.5,23.7,07.8,0000.0,0001.52,0000.79,0000.63
2023-02-07 09:25:00,,0827.3,4.99,0.00,21.8,21.3,00.0,30.6,23.6,07.8,0000.0,0001.60,0000.81,0000.63
2023-02-07 09:26:00,,0827.3,5.01,0.00,21.8,20.9,00.0,30.6,23.5,07.7,0000.0,0001.63,0000.81,0000.63
2023-02-07 09:27:00,,0827.3,5.00,0.00,21.8,20.7,00.0,30.6,23.4,07.7,0000.0,0001.78,0000.81,0000.63
2023-02-07 09:28:00,,0827.3,5.02,0.00,21.7,20.4,00.0,30.6,23.4,07.8,0000.0,0002.30,0000.82,0000.62
2023-02-07 09:29:00,,0827.3,5.01,0.00,21.7,20.2,00.0,30.6,23.3,07.8,0000.0,0002.31,0000.82,0000.62
2023-02-07 09:30:00,,0827.2,5.01,0.00,21.7,20.1,00.0,30.6,23.3,07.8,0000.0,0002.19,0000.82,0000.62
2023-02-07 09:31:00,,0827.3,5.01,0.00,21.6,20.0,00.0,30.6,23.3,07.8,0000.0,0002.18,0000.84,0000.63
2023-02-07 09:32:00,,0827.2,5.01,0.00,21.6,20.0,00.0,30.6,23.3,07.8,0000.0,0002.20,0000.85,0000.64
2023-02-07 09:33:00,,0827.3,4.99,0.00,21.6,20.0,00.0,30.6,23.2,07.8,0000.0,0002.21,0000.86,0000.64
2023-02-07 09:34:00,,0827.3,5.01,0.00,21.6,20.0,00.0,30.6,23.2,07.8,0000.0,0002.20,0000.85,0000.65
2023-02-07 09:35:00,,0827.2,5.00,0.00,21.6,20.0,00.0,30.6,23.2,07.8,0000.0,0001.96,0000.83,0000.65
2023-02-07 09:36:00,,0827.2,4.99,0.00,21.6,20.0,00.0,30.6,23.2,07.8,0000.0,0001.91,0000.82,0000.65
2023-02-07 09:37:00,,0827.2,5.01,0.00,21.6,20.2,00.0,30.5,23.2,07.8,0000.0,0001.89,0000.82,0000.65
2023-02-07 09:38:00,,0827.2,5.00,0.00,21.7,21.3,00.0,30.5,23.5,07.8,0000.0,0001.80,0000.84,0000.66
2023-02-07 09:39:00,,0827.2,5.00,0.00,21.8,22.4,00.0,30.5,23.8,07.8,0000.0,0001.30,0000.83,0000.66
2023-02-07 09:40:00,,0827.2,5.00,0.00,21.9,22.6,00.0,30.5,24.0,07.7,0000.0,0001.32,0000.83,0000.66
2023-02-07 09:41:00,,0827.2,4.98,0.00,22.0,22.1,00.0,30.6,23.9,07.7,0000.0,0001.33,0000.83,0000.66
2023-02-07 09:42:00,,0827.2,5.01,0.00,22.0,21.6,00.0,30.7,23.9,07.7,0000.0,0001.36,0000.83,0000.66
2023-02-07 09:43:00,,0827.2,5.01,0.00,22.0,21.3,00.0,30.7,23.8,07.6,0000.0,0001.35,0000.83,0000.66
2023-02-07 09:44:00,,0827.2,4.98,0.00,22.0,21.0,00.0,30.7,23.7,07.7,0000.0,0001.33,0000.82,0000.67
2023-02-07 09:45:00,,0827.2,5.05,0.00,21.9,20.8,00.0,30.7,23.7,07.7,0000.0,0001.33,0000.83,0000.68
2023-02-07 09:46:00,,0827.2,5.00,0.00,21.9,20.6,00.0,30.7,23.6,07.7,0000.0,0001.35,0000.85,0000.68
2023-02-07 09:47:00,,0827.2,5.01,0.00,21.9,20.6,00.0,30.7,23.6,07.7,0000.0,0001.35,0000.85,0000.68
2023-02-07 09:48:00,,0827.2,4.99,0.00,21.9,20.5,00.0,30.7,23.6,07.7,0000.0,0001.40,0000.86,0000.68
2023-02-07 09:49:00,,0827.2,5.03,0.00,21.9,20.4,00.0,30.7,23.6,07.6,0000.0,0001.34,0000.85,0000.69
2023-02-07 09:50:00,,0827.2,4.95,0.00,21.9,20.3,00.0,30.7,23.5,07.6,0000.0,0001.29,0000.83,0000.69
2023-02-07 09:51:00,,0827.3,5.01,0.00,21.8,20.3,00.0,30.7,23.4,07.6,0000.0,0001.23,0000.82,0000.69
2023-02-07 09:52:00,,0827.2,5.00,0.00,21.8,20.3,00.0,30.7,23.4,07.6,0000.0,0001.17,0000.80,0000.69
2023-02-07 09:53:00,,0827.2,5.00,0.00,21.8,20.3,00.0,30.7,23.4,07.6,0000.0,0001.16,0000.80,0000.69
2023-02-07 09:54:00,,0827.2,5.01,0.00,21.8,20.3,00.0,30.7,23.4,07.6,0000.0,0001.25,0000.83,0000.69
2023-02-07 09:55:00,,0827.2,5.00,0.00,21.8,20.4,00.0,30.7,23.4,07.6,0000.0,0001.27,0000.84,0000.69
2023-02-07 09:56:00,,0827.2,5.02,0.00,21.8,21.3,00.0,30.7,23.7,07.6,0000.0,0001.25,0000.83,0000.69
2023-02-07 09:57:00,,0827.2,5.00,0.00,22.0,22.2,00.0,30.7,23.9,07.5,0000.0,0001.21,0000.82,0000.69
2023-02-07 09:58:00,,0827.2,5.00,0.00,22.1,22.6,00.0,30.7,24.1,07.4,0000.0,0001.19,0000.82,0000.69
2023-02-07 09:59:00,,0827.2,4.99,0.00,22.1,22.1,00.0,30.8,24.0,07.6,0000.0,0001.18,0000.83,0000.71
